[[{"header":{"parameterUnit":"m.s-1","parameterCategory":2,"la1":30.2991,"la2":30.254,"lo1":-89.0895,"lo2":-89.0444,"dy":0.0017,"dx":0.0017,"nx":28,"ny":28,"refTime":"2025-11-22T09:00:00:Z","depth":"0","parameterNumber":2,"parameterNumberName":"U-component_of_CURRENTS"},"data":[0,0,0,0,0,0,0,0,0,0,0,0,0,0,0,0,0,0,0,0,0,0,0,0,0,0,0,0,0,0,0,0,0,0,0,0,0,0,0,0,0,0,0,0,0,0,0,0,0,0,0,0,0,0,0,0,0,0,-0.2703,-0.2704,0,-0.2729,-0.2729,-0.2729,-0.27,-0.2699,-0.2698,-0.2697,-0.2665,-0.2665,-0.2665,0,0,0,0,0,0,0,0,0,0,0,0,0,-0.2631,-0.2632,-0.2703,-0.2704,-0.2704,-0.2729,-0.2729,-0.2729,-0.27,-0.2699,-0.2698,-0.2697,-0.2665,-0.2665,-0.2665,0,0,0,0,0,0,0,0,0,0,0,0,0,-0.2658,-0.2632,-0.2703,-0.2694,-0.2694,-0.2729,-0.2729,-0.2729,-0.27,-0.2699,-0.2698,-0.2696,-0.2665,-0.2665,-0.2665,-0.2692,0,0,-0.2665,-0.2665,0,0,0,0,0,0,0,0,-0.2656,-0.266,-0.2695,-0.2695,-0.2695,-0.2712,-0.2692,-0.2715,-0.2701,-0.2696,-0.2697,-0.2696,-0.2678,-0.2677,-0.2682,-0.2691,-0.2689,-0.2665,-0.2665,-0.2665,-0.2665,0,0,0,0,0,0,0,-0.2654,-0.2659,-0.2711,-0.2696,-0.2696,-0.269,-0.2692,-0.2696,-0.2691,-0.2696,-0.2694,-0.2701,-0.2677,-0.2683,-0.2681,-0.2689,-0.2665,-0.2665,-0.2665,-0.2665,-0.2709,-0.271,0,0,0,0,0,0,-0.2658,-0.2657,-0.271,-0.2712,-0.2674,-0.2693,-0.2695,-0.2706,-0.2692,-0.269,-0.2703,-0.27,-0.2683,-0.2681,-0.268,-0.2704,-0.2665,-0.2665,-0.2665,-0.2708,-0.2709,-0.271,0,0,0,0,0,0,-0.2656,-0.2662,-0.2709,-0.2687,-0.2692,-0.2695,-0.2708,-0.2707,-0.2706,-0.2698,-0.2694,-0.2702,-0.2682,-0.268,-0.2686,-0.2702,-0.2665,-0.2665,-0.2706,-0.2708,-0.271,-0.2756,0,0,0,0,0,0,-0.2654,-0.2662,-0.2666,-0.2687,-0.2694,-0.2733,-0.271,-0.2709,-0.2714,-0.2711,-0.2697,-0.2693,-0.2681,-0.2686,-0.2686,-0.2702,-0.2665,-0.2705,-0.2707,-0.2709,-0.2753,-0.2759,-0.2764,0,0,0,0,0,-0.2651,-0.2666,-0.2666,-0.2672,-0.2701,-0.2734,-0.2737,-0.2732,-0.2715,-0.2724,-0.2713,-0.2693,-0.27,-0.2687,-0.2687,-0.2703,-0.2704,-0.2706,-0.2709,-0.2751,-0.2758,-0.2764,0,0,0,0,0,0,-0.2634,-0.2665,-0.2665,-0.2687,-0.271,-0.2729,-0.2735,-0.2735,-0.2735,-0.2725,-0.2709,-0.2706,-0.2718,-0.2708,-0.2694,-0.2723,-0.2698,-0.2701,-0.273,-0.2737,-0.2743,-0.2739,-0.2665,0,0,0,0,0,-0.2635,-0.265,-0.2682,-0.2696,-0.2709,-0.2722,-0.2731,-0.2734,-0.2741,-0.2739,-0.2732,-0.2726,-0.2732,-0.273,-0.2733,-0.275,-0.2721,-0.276,-0.2766,-0.2771,-0.2768,-0.2749,-0.2752,-0.2719,-0.2719,-0.2719,0,0,-0.2629,-0.2649,-0.2655,-0.2693,-0.2705,-0.2736,-0.2723,-0.2743,-0.2765,-0.2737,-0.2751,-0.2746,-0.2742,-0.2761,-0.2765,-0.275,-0.2764,-0.2774,-0.2778,-0.2773,-0.2752,-0.2755,-0.2758,-0.2721,-0.272,-0.272,0,0,-0.2634,-0.2647,-0.2664,-0.2692,-0.2723,-0.274,-0.2748,-0.2773,-0.2776,-0.28,-0.2785,-0.2788,-0.2797,-0.2798,-0.28,-0.284,-0.2797,-0.2842,-0.2865,-0.2847,-0.2849,-0.285,-0.281,-0.2807,-0.2843,-0.2843,-0.2843,0,-0.2623,-0.2654,-0.2674,-0.2707,-0.2729,-0.2744,-0.2774,-0.2793,-0.2815,-0.282,-0.2807,-0.2821,-0.2816,-0.2837,-0.2852,-0.2852,-0.2824,-0.2838,-0.2853,-0.2854,-0.2854,-0.2812,-0.2809,-0.2845,-0.2845,-0.2845,-0.2844,0,-0.2648,-0.2675,-0.2689,-0.2735,-0.2765,-0.2792,-0.2831,-0.285,-0.2854,-0.2866,-0.2882,-0.2878,-0.288,-0.2888,-0.2883,-0.2895,-0.2867,-0.2862,-0.2831,-0.286,-0.2814,-0.281,-0.2849,-0.2848,-0.2847,-0.2847,0,0,-0.2611,-0.269,-0.2692,-0.2719,-0.2781,-0.2806,-0.2853,-0.2892,-0.291,-0.2924,-0.2938,-0.2955,-0.2939,-0.294,-0.2932,-0.2921,-0.2904,-0.2896,-0.2894,-0.2848,-0.2843,-0.2747,-0.2733,-0.2899,-0.2899,-0.2899,-0.2805,0,-0.2616,-0.2676,-0.2719,-0.2771,-0.2804,-0.2847,-0.2889,-0.2928,-0.2948,-0.2968,-0.2966,-0.2975,-0.2964,-0.296,-0.2951,-0.2928,-0.2896,-0.2929,-0.2828,-0.2825,-0.273,-0.2726,-0.2616,-0.2517,-0.2801,-0.28,-0.2799,0,-0.2616,-0.266,-0.2712,-0.2789,-0.2806,-0.2841,-0.2898,-0.2939,-0.2982,-0.2996,-0.3005,-0.3002,-0.3005,-0.298,-0.2936,-0.2956,-0.2896,-0.2866,-0.2861,-0.2751,-0.2721,-0.2536,-0.2497,-0.2479,-0.2792,-0.2793,-0.2793,0,-0.2562,-0.2648,-0.2684,-0.2712,-0.2806,-0.2831,-0.2874,-0.2933,-0.296,-0.3002,-0.3008,-0.302,-0.3002,-0.2966,-0.2905,-0.2919,-0.2832,-0.2843,-0.2691,-0.2683,-0.2557,-0.2538,-0.248,-0.2778,-0.2778,-0.2779,-0.2779,0,-0.2542,-0.2567,-0.2659,-0.268,-0.2718,-0.2799,-0.2834,-0.2882,-0.294,-0.2956,-0.3002,-0.2996,-0.2994,-0.2948,-0.2903,-0.2775,-0.2822,-0.2681,-0.2651,-0.2569,-0.2553,-0.2506,-0.2539,-0.2775,-0.2776,-0.2776,-0.2777,0,-0.2464,-0.253,-0.2571,-0.2666,-0.269,-0.2711,-0.2796,-0.2819,-0.2891,-0.2909,-0.2919,-0.2961,-0.2904,-0.2871,-0.2798,-0.2738,-0.2597,-0.2583,-0.2475,-0.2433,-0.2284,-0.2324,-0.2228,-0.2165,-0.2412,-0.2409,-0.2407,0,-0.2424,-0.2437,-0.2527,-0.2541,-0.2577,-0.2628,-0.2657,-0.2764,-0.2793,-0.2871,-0.2864,-0.284,-0.2772,-0.2644,-0.2552,-0.2428,-0.2446,-0.2262,-0.2271,-0.2244,-0.2268,-0.2308,-0.2267,-0.2121,-0.2117,-0.2113,-0.211,0,-0.2331,-0.236,-0.2392,-0.2429,-0.2459,-0.2499,-0.2555,-0.2575,-0.2688,-0.2702,-0.2693,-0.2648,-0.254,-0.2374,-0.2237,-0.2163,-0.2218,-0.2178,-0.2183,-0.2054,-0.2062,-0.1996,-0.2215,-0.2076,-0.2079,-0.2082,-0.2084,-0.2085,-0.2232,-0.2227,-0.2265,-0.2283,-0.2319,-0.2333,-0.2315,-0.2385,-0.2394,-0.2389,-0.2459,-0.2349,-0.226,-0.2045,-0.1969,-0.1835,-0.1922,-0.1794,-0.1848,-0.1894,-0.1824,-0.1954,-0.1767,-0.1769,-0.177,-0.1771,-0.1772,0,-0.2093,-0.2103,-0.2116,-0.2133,-0.2107,-0.2181,-0.2208,-0.2154,-0.2102,-0.2136,-0.209,-0.1984,-0.1817,-0.1764,-0.1636,-0.1548,-0.1529,-0.1533,-0.1583,-0.1558,-0.1679,-0.1656,-0.1397,-0.1397,-0.1397,-0.1397,-0.1397,-0.1397,-0.202,-0.1978,-0.1989,-0.1903,-0.191,-0.183,-0.1806,-0.1737,-0.1717,-0.1596,-0.1568,-0.1553,-0.1548,-0.1659,-0.1532,-0.1451,-0.1442,-0.1386,-0.1434,-0.1554,-0.1584,-0.1613,-0.1598,-0.1331,-0.1331,-0.1245,-0.1245,-0.1244]},{"header":{"parameterUnit":"m.s-1","parameterCategory":2,"la1":30.2991,"la2":30.254,"lo1":-89.0895,"lo2":-89.0444,"dy":0.0017,"dx":0.0017,"nx":28,"ny":28,"refTime":"2025-11-22T09:00:00:Z","depth":"0","parameterNumber":3,"parameterNumberName":"V-component_of_CURRENTS"},"data":[0,0,0,0,0,0,0,0,0,0,0,0,0,0,0,0,0,0,0,0,0,0,0,0,0,0,0,0,0,0,0,0,0,0,0,0,0,0,0,0,0,0,0,0,0,0,0,0,0,0,0,0,0,0,0,0,0,0,-0.0184,-0.0183,0,-0.0088,-0.0087,-0.0086,-0.0014,-0.0014,-0.0013,-0.0013,0.0131,0.0134,0.0137,0,0,0,0,0,0,0,0,0,0,0,0,0,-0.0243,-0.0243,-0.0184,-0.0183,-0.0182,-0.0089,-0.0087,-0.0086,-0.0014,-0.0014,-0.0013,-0.0013,0.013,0.0134,0.0138,0,0,0,0,0,0,0,0,0,0,0,0,0,-0.0188,-0.0243,-0.0184,-0.0137,-0.0132,-0.0089,-0.0087,-0.0085,-0.0014,-0.0014,-0.0013,-0.0012,0.0128,0.0133,0.0138,0.0156,0,0,0.0154,0.0156,0,0,0,0,0,0,0,0,-0.0191,-0.0186,-0.0145,-0.014,-0.0134,-0.0064,-0.0055,-0.0003,-0.0015,-0.0057,-0.0013,-0.0012,0.0068,0.0078,0.0097,0.0163,0.0169,0.0154,0.0158,0.016,0.0161,0,0,0,0,0,0,0,-0.0195,-0.0189,-0.0144,-0.0144,-0.0138,-0.0099,-0.0091,-0.0045,0.0003,-0.0053,-0.0048,-0.0041,0.0072,0.0092,0.0101,0.0171,0.0154,0.0159,0.0162,0.0164,0.028,0.028,0,0,0,0,0,0,-0.0215,-0.0193,-0.0147,-0.0142,-0.0164,-0.0099,-0.009,-0.0086,0.0002,0.0015,-0.0042,-0.0038,0.0083,0.0095,0.0106,0.0138,0.016,0.0164,0.0167,0.028,0.028,0.028,0,0,0,0,0,0,-0.0217,-0.0212,-0.0151,-0.0166,-0.0156,-0.01,-0.0095,-0.0084,-0.0064,0.001,0.0024,-0.0033,0.0084,0.0099,0.0146,0.0144,0.0167,0.0171,0.028,0.028,0.028,0.0199,0,0,0,0,0,0,-0.0219,-0.0213,-0.0219,-0.0168,-0.0156,-0.0136,-0.0096,-0.0083,-0.0062,-0.0056,0.0022,0.0036,0.0086,0.0137,0.0151,0.0152,0.0175,0.028,0.028,0.028,0.0201,0.0196,0.0191,0,0,0,0,0,-0.0222,-0.0236,-0.022,-0.0214,-0.0165,-0.0137,-0.0127,-0.0082,-0.0062,-0.006,-0.0005,0.0033,0.0147,0.0141,0.0157,0.0159,0.028,0.028,0.028,0.0204,0.0197,0.0192,0,0,0,0,0,0,-0.0264,-0.0229,-0.021,-0.0213,-0.0182,-0.0126,-0.0121,-0.0091,-0.0045,-0.0038,0.0033,0.0051,0.009,0.0136,0.0127,0.0194,0.022,0.0223,0.0157,0.0151,0.0146,0.0126,0.018,0,0,0,0,0,-0.0278,-0.0278,-0.0236,-0.0238,-0.0227,-0.0176,-0.0159,-0.013,-0.0084,-0.0063,-0.0009,0.0051,0.0102,0.0134,0.0182,0.0218,0.0272,0.0231,0.0226,0.0221,0.0216,0.0294,0.0296,0.028,0.028,0.028,0,0,-0.0295,-0.0276,-0.0275,-0.0247,-0.0219,-0.0213,-0.0164,-0.0147,-0.0134,-0.0055,-0.0023,0.0032,0.0106,0.0146,0.0169,0.0185,0.0254,0.0221,0.0217,0.0214,0.0294,0.0296,0.0297,0.028,0.028,0.028,0,0,-0.0335,-0.0313,-0.033,-0.031,-0.0279,-0.0244,-0.0245,-0.0195,-0.0165,-0.013,-0.0069,-0.0015,0.0058,0.0116,0.0155,0.0152,0.022,0.0166,0.0131,0.0207,0.0208,0.0211,0.0279,0.0288,0.0169,0.0168,0.0168,0,-0.0358,-0.0371,-0.033,-0.034,-0.0329,-0.0266,-0.0278,-0.0239,-0.0179,-0.0151,-0.0132,-0.0012,0.0047,0.0112,0.0109,0.0141,0.0191,0.0145,0.0199,0.0203,0.0206,0.0276,0.0287,0.0165,0.0165,0.0165,0.0166,0,-0.0409,-0.0417,-0.0426,-0.0415,-0.0397,-0.0397,-0.0342,-0.0316,-0.0273,-0.0223,-0.0157,-0.0074,0.0003,0.0027,0.0067,0.0122,0.015,0.0178,0.021,0.0203,0.0277,0.029,0.0159,0.016,0.0162,0.0162,0,0,-0.0464,-0.0464,-0.0466,-0.0476,-0.0438,-0.0429,-0.0404,-0.0358,-0.0333,-0.0265,-0.0221,-0.0134,-0.0078,-0.0032,0.0034,0.0094,0.016,0.0135,0.0141,0.0194,0.0324,0.0368,0.0387,0.0196,0.0197,0.0199,0.0364,0,-0.0516,-0.0562,-0.0536,-0.0564,-0.0581,-0.0515,-0.0496,-0.0441,-0.0375,-0.0314,-0.0212,-0.015,-0.0101,-0.0065,0.0006,0.0127,0.0191,0.0113,0.033,0.0337,0.0371,0.0402,0.0444,0.0597,0.0377,0.0379,0.0381,0,-0.0574,-0.0597,-0.0644,-0.0641,-0.0639,-0.0638,-0.0584,-0.0558,-0.0449,-0.0394,-0.0303,-0.0217,-0.0108,-0.0074,0.013,0.0077,0.0186,0.0274,0.0284,0.0362,0.0406,0.0571,0.0629,0.0778,0.0401,0.0399,0.0398,0,-0.064,-0.0667,-0.0708,-0.0709,-0.0695,-0.0692,-0.0671,-0.0584,-0.0551,-0.0441,-0.0398,-0.0251,-0.0165,-0.0018,0.0173,0.0153,0.0399,0.0405,0.0548,0.0552,0.065,0.066,0.0872,0.0538,0.0538,0.0537,0.0537,0,-0.0709,-0.0739,-0.0746,-0.0772,-0.0805,-0.0762,-0.0761,-0.071,-0.0622,-0.0571,-0.0448,-0.0363,-0.0149,0.0022,0.0174,0.0416,0.0414,0.0552,0.0604,0.0623,0.0628,0.0811,0.0855,0.0544,0.0542,0.0541,0.054,0,-0.0777,-0.0782,-0.0833,-0.0841,-0.0843,-0.0866,-0.0836,-0.0822,-0.0735,-0.066,-0.063,-0.0425,-0.0195,0.0025,0.0298,0.0431,0.0748,0.072,0.0723,0.0772,0.1017,0.1053,0.1307,0.1411,0.0901,0.0903,0.0905,0,-0.0817,-0.0853,-0.0896,-0.0928,-0.0937,-0.0956,-0.0961,-0.0889,-0.0858,-0.0686,-0.0649,-0.0414,-0.0214,0.02,0.0474,0.0769,0.0873,0.0961,0.0926,0.1052,0.1132,0.115,0.1219,0.103,0.1033,0.1035,0.1037,0,-0.089,-0.0903,-0.0945,-0.1018,-0.1045,-0.1069,-0.1063,-0.105,-0.0937,-0.0832,-0.0637,-0.0461,-0.0055,0.0322,0.069,0.0862,0.1075,0.1014,0.1163,0.1266,0.1285,0.1402,0.0889,0.1056,0.1054,0.1053,0.1052,0.1051,-0.093,-0.098,-0.1034,-0.1095,-0.1133,-0.1154,-0.1139,-0.1087,-0.0996,-0.0764,-0.0626,-0.027,0.019,0.073,0.0919,0.1308,0.1258,0.142,0.1459,0.1471,0.1556,0.1073,0.128,0.1279,0.1279,0.1278,0.1278,0,-0.0974,-0.1028,-0.1103,-0.1167,-0.1209,-0.1207,-0.1177,-0.1087,-0.0939,-0.0681,-0.0435,0.015,0.0615,0.1034,0.1534,0.1741,0.1784,0.1845,0.1891,0.1947,0.1556,0.1544,0.1795,0.1795,0.1795,0.1795,0.1795,0.1795,-0.0997,-0.1079,-0.112,-0.1204,-0.124,-0.1208,-0.1165,-0.0977,-0.0757,-0.0294,0.0104,0.0399,0.0928,0.1634,0.2094,0.2142,0.232,0.2301,0.2399,0.2124,0.2087,0.2051,0.2054,0.2408,0.2409,0.279,0.2793,0.2796]}],[{"header":{"parameterUnit":"m.s-1","parameterCategory":2,"la1":30.2991,"la2":30.254,"lo1":-89.0895,"lo2":-89.0444,"dy":0.0017,"dx":0.0017,"nx":28,"ny":28,"refTime":"2025-11-22T09:00:00:Z","depth":"2","parameterNumber":2,"parameterNumberName":"U-component_of_CURRENTS"},"data":[0,0,0,0,0,0,0,0,0,0,0,0,0,0,0,0,0,0,0,0,0,0,0,0,0,0,0,0,0,0,0,0,0,0,0,0,0,0,0,0,0,0,0,0,0,0,0,0,0,0,0,0,0,0,0,0,0,0,-0.2481,-0.2481,0,-0.2514,-0.2514,-0.2514,-0.2496,-0.2495,-0.2495,-0.2494,-0.2478,-0.2478,-0.2479,0,0,0,0,0,0,0,0,0,0,0,0,0,-0.2406,-0.2407,-0.2481,-0.2481,-0.2482,-0.2514,-0.2514,-0.2514,-0.2496,-0.2495,-0.2495,-0.2494,-0.2478,-0.2478,-0.2479,0,0,0,0,0,0,0,0,0,0,0,0,0,-0.2436,-0.2407,-0.2481,-0.2478,-0.2479,-0.2514,-0.2514,-0.2514,-0.2496,-0.2495,-0.2494,-0.2493,-0.2478,-0.2478,-0.2479,-0.2503,0,0,-0.248,-0.248,0,0,0,0,0,0,0,0,-0.2435,-0.2439,-0.2478,-0.2479,-0.2479,-0.2502,-0.2482,-0.2509,-0.2497,-0.2488,-0.2494,-0.2493,-0.2484,-0.2484,-0.249,-0.2502,-0.2501,-0.248,-0.248,-0.248,-0.248,0,0,0,0,0,0,0,-0.2433,-0.2438,-0.2492,-0.2479,-0.2479,-0.2477,-0.248,-0.2487,-0.2489,-0.2488,-0.2488,-0.2495,-0.2483,-0.249,-0.2489,-0.2501,-0.248,-0.248,-0.248,-0.2481,-0.2533,-0.2534,0,0,0,0,0,0,-0.2434,-0.2436,-0.2491,-0.2493,-0.2456,-0.2479,-0.2483,-0.2494,-0.249,-0.2489,-0.2496,-0.2494,-0.249,-0.2489,-0.2489,-0.252,-0.248,-0.2481,-0.2481,-0.2532,-0.2533,-0.2535,0,0,0,0,0,0,-0.2432,-0.2439,-0.2489,-0.2466,-0.2473,-0.2482,-0.2495,-0.2495,-0.25,-0.2496,-0.2494,-0.25,-0.2489,-0.2488,-0.25,-0.2519,-0.2481,-0.2481,-0.253,-0.2532,-0.2534,-0.2581,0,0,0,0,0,0,-0.243,-0.2438,-0.2444,-0.2467,-0.2474,-0.2515,-0.2496,-0.2496,-0.2507,-0.2505,-0.2499,-0.2497,-0.2488,-0.25,-0.2501,-0.2519,-0.2481,-0.2529,-0.2531,-0.2533,-0.2578,-0.2584,-0.259,0,0,0,0,0,-0.2427,-0.2443,-0.2444,-0.2451,-0.2483,-0.2516,-0.252,-0.2521,-0.2508,-0.2519,-0.2515,-0.2497,-0.2514,-0.2502,-0.2502,-0.2521,-0.2528,-0.2531,-0.2533,-0.2575,-0.2583,-0.2589,0,0,0,0,0,0,-0.2412,-0.2443,-0.2445,-0.2468,-0.2492,-0.2514,-0.2522,-0.2525,-0.2532,-0.2525,-0.2513,-0.2512,-0.253,-0.2522,-0.2508,-0.2543,-0.2518,-0.2521,-0.255,-0.2557,-0.2563,-0.2558,-0.2482,0,0,0,0,0,-0.2413,-0.2429,-0.2462,-0.2478,-0.2491,-0.2507,-0.2518,-0.2525,-0.2536,-0.2537,-0.2535,-0.2535,-0.2544,-0.2546,-0.2552,-0.2572,-0.2546,-0.2585,-0.259,-0.2595,-0.2593,-0.2579,-0.2583,-0.2543,-0.2543,-0.2543,0,0,-0.2409,-0.2429,-0.2437,-0.2475,-0.2489,-0.2521,-0.251,-0.2535,-0.2558,-0.2535,-0.2557,-0.2556,-0.2555,-0.2578,-0.2585,-0.2571,-0.2592,-0.2599,-0.2603,-0.2598,-0.2582,-0.2586,-0.2589,-0.2545,-0.2545,-0.2544,0,0,-0.2415,-0.243,-0.2449,-0.2476,-0.251,-0.2527,-0.2537,-0.2566,-0.2573,-0.2602,-0.259,-0.26,-0.2615,-0.2618,-0.2621,-0.2663,-0.2624,-0.2667,-0.269,-0.2678,-0.268,-0.2682,-0.2646,-0.2645,-0.2668,-0.2668,-0.2668,0,-0.2408,-0.2438,-0.2459,-0.2492,-0.2514,-0.2533,-0.2564,-0.2585,-0.2613,-0.2622,-0.2613,-0.2635,-0.2635,-0.2659,-0.2675,-0.2676,-0.2652,-0.2664,-0.2684,-0.2685,-0.2686,-0.2649,-0.2646,-0.2671,-0.267,-0.267,-0.267,0,-0.2433,-0.2461,-0.2476,-0.2522,-0.2552,-0.2581,-0.262,-0.2643,-0.2653,-0.2668,-0.2692,-0.2694,-0.2701,-0.2711,-0.2706,-0.2723,-0.2697,-0.2692,-0.2663,-0.2693,-0.2652,-0.2648,-0.2674,-0.2673,-0.2673,-0.2672,0,0,-0.2401,-0.2477,-0.2481,-0.2507,-0.257,-0.2594,-0.2643,-0.2685,-0.2705,-0.2728,-0.2747,-0.277,-0.2759,-0.2762,-0.2757,-0.2751,-0.2742,-0.2728,-0.2726,-0.2686,-0.2692,-0.2604,-0.2591,-0.2739,-0.2739,-0.2739,-0.2657,0,-0.2409,-0.2467,-0.2508,-0.256,-0.2592,-0.2636,-0.2679,-0.272,-0.2745,-0.2771,-0.2776,-0.2792,-0.2783,-0.2784,-0.278,-0.2759,-0.2737,-0.2763,-0.2675,-0.2671,-0.2584,-0.2586,-0.2406,-0.2311,-0.2653,-0.2652,-0.2652,0,-0.2411,-0.2453,-0.2505,-0.2577,-0.2595,-0.2631,-0.2689,-0.2732,-0.278,-0.2798,-0.2815,-0.2818,-0.2826,-0.2807,-0.2771,-0.2787,-0.274,-0.2714,-0.271,-0.2607,-0.2577,-0.2338,-0.2292,-0.2646,-0.2646,-0.2647,-0.2647,0,-0.2362,-0.2444,-0.248,-0.2507,-0.2597,-0.2624,-0.2668,-0.273,-0.2757,-0.2807,-0.2818,-0.2835,-0.2824,-0.2796,-0.2745,-0.2758,-0.2684,-0.2694,-0.2562,-0.2554,-0.2371,-0.2348,-0.2646,-0.2646,-0.2646,-0.2646,-0.2646,0,-0.2345,-0.2371,-0.2459,-0.2479,-0.2517,-0.2595,-0.2633,-0.2682,-0.2743,-0.276,-0.2815,-0.2813,-0.2819,-0.2782,-0.2743,-0.2632,-0.2675,-0.2554,-0.2527,-0.2382,-0.2362,-0.2634,-0.2634,-0.2643,-0.2644,-0.2644,-0.2645,0,-0.2275,-0.2337,-0.2378,-0.2468,-0.2493,-0.2515,-0.2599,-0.2622,-0.2697,-0.2719,-0.2732,-0.2782,-0.2735,-0.2712,-0.2653,-0.26,-0.2526,-0.2467,-0.2286,-0.2239,-0.2406,-0.2409,-0.2323,-0.2319,-0.2316,-0.2313,-0.2311,0,-0.224,-0.2254,-0.2339,-0.2353,-0.2389,-0.244,-0.2469,-0.2573,-0.2601,-0.2682,-0.2676,-0.2668,-0.2609,-0.2502,-0.2419,-0.2311,-0.2403,-0.2093,-0.2091,-0.239,-0.2373,-0.2381,-0.2389,-0.1862,-0.1857,-0.1852,-0.1848,0,-0.2157,-0.2186,-0.2216,-0.225,-0.228,-0.2317,-0.2372,-0.2388,-0.2496,-0.2514,-0.2511,-0.2474,-0.2386,-0.2197,-0.2083,-0.2011,-0.2108,-0.1993,-0.2334,-0.1983,-0.1952,-0.1937,-0.196,-0.1806,-0.181,-0.1813,-0.1816,-0.1817,-0.207,-0.2066,-0.2101,-0.2116,-0.2151,-0.2159,-0.213,-0.2198,-0.2205,-0.2188,-0.2272,-0.2147,-0.2118,-0.1837,-0.1731,-0.1661,-0.181,-0.174,-0.1756,-0.1776,-0.1749,-0.1715,-0.1518,-0.152,-0.1522,-0.1524,-0.1526,0,-0.1947,-0.1954,-0.1963,-0.1974,-0.1944,-0.2014,-0.2027,-0.1961,-0.1901,-0.1923,-0.1877,-0.1654,-0.1518,-0.1497,-0.1313,-0.1278,-0.1282,-0.1235,-0.1245,-0.1286,-0.1323,-0.1275,-0.0917,-0.0915,-0.0914,-0.0912,0,0,-0.1882,-0.184,-0.1843,-0.1752,-0.1753,-0.1646,-0.1609,-0.1536,-0.1501,-0.1394,-0.1334,-0.1419,-0.1436,-0.1175,-0.1116,-0.0981,-0.1123,-0.0931,-0.1417,-0.1468,-0.1503,-0.1609,-0.158,0,0,0,0,0]},{"header":{"parameterUnit":"m.s-1","parameterCategory":2,"la1":30.2991,"la2":30.254,"lo1":-89.0895,"lo2":-89.0444,"dy":0.0017,"dx":0.0017,"nx":28,"ny":28,"refTime":"2025-11-22T09:00:00:Z","depth":"2","parameterNumber":3,"parameterNumberName":"V-component_of_CURRENTS"},"data":[0,0,0,0,0,0,0,0,0,0,0,0,0,0,0,0,0,0,0,0,0,0,0,0,0,0,0,0,0,0,0,0,0,0,0,0,0,0,0,0,0,0,0,0,0,0,0,0,0,0,0,0,0,0,0,0,0,0,-0.0288,-0.0287,0,-0.0201,-0.02,-0.0199,-0.0136,-0.0135,-0.0135,-0.0135,-0.0005,-0.0002,0.0001,0,0,0,0,0,0,0,0,0,0,0,0,0,-0.034,-0.034,-0.0288,-0.0287,-0.0286,-0.0201,-0.02,-0.0199,-0.0136,-0.0135,-0.0135,-0.0134,-0.0006,-0.0003,0.0001,0,0,0,0,0,0,0,0,0,0,0,0,0,-0.029,-0.0339,-0.0288,-0.0246,-0.0241,-0.0202,-0.02,-0.0198,-0.0136,-0.0135,-0.0135,-0.0134,-0.0008,-0.0003,0.0001,0.0019,0,0,0.0016,0.0018,0,0,0,0,0,0,0,0,-0.0293,-0.0288,-0.0253,-0.0249,-0.0244,-0.018,-0.0171,-0.0124,-0.0136,-0.0174,-0.0135,-0.0134,-0.0062,-0.0053,-0.0035,0.0025,0.0031,0.0016,0.0019,0.0021,0.0022,0,0,0,0,0,0,0,-0.0297,-0.0291,-0.0252,-0.0252,-0.0246,-0.0211,-0.0204,-0.0162,-0.012,-0.017,-0.0166,-0.016,-0.0058,-0.004,-0.0032,0.0033,0.0016,0.002,0.0023,0.0025,0.0131,0.0131,0,0,0,0,0,0,-0.0315,-0.0295,-0.0254,-0.0249,-0.027,-0.0211,-0.0203,-0.02,-0.0121,-0.0109,-0.016,-0.0157,-0.0048,-0.0037,-0.0027,0.0003,0.0021,0.0025,0.0028,0.0131,0.0131,0.0131,0,0,0,0,0,0,-0.0317,-0.0312,-0.0258,-0.0271,-0.0262,-0.0211,-0.0208,-0.0198,-0.0179,-0.0114,-0.0101,-0.0152,-0.0047,-0.0033,0.0009,0.0009,0.0027,0.0032,0.0131,0.0131,0.0131,0.0061,0,0,0,0,0,0,-0.0318,-0.0314,-0.0318,-0.0273,-0.0262,-0.0243,-0.0208,-0.0197,-0.0177,-0.0172,-0.0102,-0.009,-0.0046,0.0002,0.0014,0.0015,0.0035,0.0131,0.0131,0.0131,0.0063,0.0058,0.0054,0,0,0,0,0,-0.0321,-0.0333,-0.0319,-0.0314,-0.027,-0.0244,-0.0235,-0.0195,-0.0178,-0.0175,-0.0125,-0.0092,0.0011,0.0005,0.0019,0.0022,0.0131,0.0131,0.0131,0.0065,0.0059,0.0054,0,0,0,0,0,0,-0.0358,-0.0326,-0.031,-0.0312,-0.0284,-0.0234,-0.0229,-0.0202,-0.0161,-0.0155,-0.0091,-0.0075,-0.004,0.0001,-0.0007,0.0053,0.0076,0.0079,0.0021,0.0017,0.0012,-0.0005,0.0039,0,0,0,0,0,-0.037,-0.037,-0.0332,-0.0334,-0.0324,-0.0278,-0.0262,-0.0236,-0.0194,-0.0176,-0.0127,-0.0074,-0.0028,-0.0,0.0043,0.0077,0.0123,0.0089,0.0084,0.008,0.0076,0.0144,0.0145,0.0131,0.0131,0.0131,0,0,-0.0384,-0.0368,-0.0367,-0.0342,-0.0316,-0.0309,-0.0267,-0.025,-0.0238,-0.0168,-0.0139,-0.0091,-0.0024,0.0012,0.0032,0.0047,0.0108,0.008,0.0076,0.0075,0.0144,0.0146,0.0147,0.0131,0.0131,0.0131,0,0,-0.0418,-0.04,-0.0413,-0.0395,-0.0366,-0.0336,-0.0336,-0.029,-0.0264,-0.0232,-0.0178,-0.013,-0.0064,-0.0013,0.0021,0.002,0.0079,0.0032,0.0003,0.0069,0.0071,0.0073,0.0129,0.0137,0.0035,0.0035,0.0035,0,-0.0438,-0.0448,-0.0412,-0.0419,-0.041,-0.0354,-0.0364,-0.0329,-0.0275,-0.0252,-0.0234,-0.0126,-0.0074,-0.0015,-0.0017,0.0011,0.0053,0.0015,0.0063,0.0066,0.0069,0.0127,0.0136,0.0032,0.0032,0.0032,0.0033,0,-0.048,-0.0487,-0.0493,-0.0483,-0.0466,-0.0466,-0.0418,-0.0394,-0.0356,-0.0314,-0.0255,-0.0179,-0.0112,-0.0089,-0.0053,-0.0004,0.0019,0.0044,0.0072,0.0066,0.0128,0.0139,0.0027,0.0028,0.0029,0.003,0,0,-0.0528,-0.0526,-0.0528,-0.0538,-0.0502,-0.0495,-0.0472,-0.0433,-0.0414,-0.035,-0.0314,-0.0232,-0.0184,-0.0142,-0.0083,-0.0027,0.003,0.0009,0.0014,0.0057,0.017,0.0193,0.0208,0.0061,0.0063,0.0064,0.0202,0,-0.0573,-0.0611,-0.0587,-0.0612,-0.0626,-0.057,-0.0554,-0.0507,-0.0451,-0.04,-0.0306,-0.0252,-0.0204,-0.0172,-0.0108,-0.0003,0.0056,-0.001,0.0175,0.0181,0.0197,0.0221,0.0187,0.0308,0.0213,0.0215,0.0216,0,-0.0621,-0.0641,-0.0681,-0.0682,-0.0681,-0.068,-0.0639,-0.0616,-0.0524,-0.0478,-0.0397,-0.032,-0.0221,-0.0185,-0.0005,-0.0051,0.0048,0.0128,0.0136,0.019,0.0225,0.0301,0.0332,0.0235,0.0234,0.0232,0.0231,0,-0.068,-0.0703,-0.074,-0.0741,-0.073,-0.073,-0.0714,-0.0642,-0.0617,-0.0523,-0.0488,-0.0357,-0.0283,-0.0147,0.0023,0.001,0.0222,0.0232,0.0349,0.0352,0.0376,0.0379,0.0355,0.0355,0.0354,0.0354,0.0354,0,-0.074,-0.0768,-0.0774,-0.0798,-0.0832,-0.0794,-0.0801,-0.0759,-0.0688,-0.0653,-0.0535,-0.0466,-0.0272,-0.0123,0.0019,0.0225,0.0229,0.0351,0.0393,0.0351,0.0349,0.0326,0.0321,0.0359,0.0358,0.0357,0.0356,0,-0.08,-0.0804,-0.0852,-0.0862,-0.0866,-0.089,-0.0873,-0.0867,-0.0793,-0.074,-0.0713,-0.0534,-0.0336,-0.0136,0.0106,0.0224,0.0411,0.048,0.0412,0.0444,0.0495,0.0484,0.0622,0.0624,0.0625,0.0627,0.0628,0,-0.0836,-0.0868,-0.0911,-0.0943,-0.0953,-0.0977,-0.0987,-0.0928,-0.0909,-0.0773,-0.0745,-0.0545,-0.038,-0.0018,0.0221,0.0484,0.0481,0.0591,0.0561,0.0497,0.0525,0.0512,0.0499,0.057,0.057,0.0571,0.0571,0,-0.0902,-0.0915,-0.0955,-0.1026,-0.1058,-0.1087,-0.109,-0.1087,-0.0999,-0.0917,-0.0763,-0.0618,-0.0273,0.0023,0.0347,0.0491,0.0543,0.061,0.0589,0.0496,0.0456,0.048,0.0469,0.0576,0.0576,0.0575,0.0575,0.0575,-0.0941,-0.0989,-0.104,-0.1102,-0.1144,-0.1175,-0.1184,-0.1149,-0.1088,-0.0934,-0.0787,-0.0526,-0.0266,0.0214,0.043,0.0627,0.0626,0.0672,0.0667,0.0662,0.0621,0.0585,0.0721,0.0722,0.0722,0.0722,0.0723,0,-0.0987,-0.1037,-0.1109,-0.1177,-0.1229,-0.1229,-0.1231,-0.1199,-0.1109,-0.0926,-0.0734,-0.0403,-0.0066,0.0205,0.052,0.0699,0.0675,0.0722,0.0652,0.0647,0.0642,0.0596,0.0692,0.0693,0.0693,0.0693,0,0,-0.1012,-0.1089,-0.1127,-0.1223,-0.1268,-0.1297,-0.1288,-0.1208,-0.1074,-0.0867,-0.065,-0.0375,-0.0045,0.017,0.0392,0.0552,0.0546,0.0562,0.0568,0.0453,0.0446,0.0599,0.0521,0,0,0,0,0]}],[{"header":{"parameterUnit":"m.s-1","parameterCategory":2,"la1":30.2991,"la2":30.254,"lo1":-89.0895,"lo2":-89.0444,"dy":0.0017,"dx":0.0017,"nx":28,"ny":28,"refTime":"2025-11-22T09:00:00:Z","depth":"4","parameterNumber":2,"parameterNumberName":"U-component_of_CURRENTS"},"data":[0,0,0,0,0,0,0,0,0,0,0,0,0,0,0,0,0,0,0,0,0,0,0,0,0,0,0,0,0,0,0,0,0,0,0,0,0,0,0,0,0,0,0,0,0,0,0,0,0,0,0,0,0,0,0,0,0,0,-0.1767,-0.1767,0,-0.184,-0.184,-0.1841,-0.1885,-0.1885,-0.1885,-0.1886,-0.1948,-0.195,-0.1951,0,0,0,0,0,0,0,0,0,0,0,0,0,-0.1663,-0.1664,-0.1766,-0.1768,-0.1769,-0.1839,-0.184,-0.1841,-0.1885,-0.1885,-0.1886,-0.1886,-0.1948,-0.1949,-0.1951,0,0,0,0,0,0,0,0,0,0,0,0,0,-0.1717,-0.1665,-0.1766,-0.18,-0.1804,-0.1839,-0.184,-0.1841,-0.1885,-0.1885,-0.1886,-0.1886,-0.1947,-0.1949,-0.1951,-0.1953,0,0,-0.1957,-0.1958,0,0,0,0,0,0,0,0,-0.1714,-0.1721,-0.1794,-0.1798,-0.1802,-0.1855,-0.1827,-0.1879,-0.1884,-0.1852,-0.1886,-0.1886,-0.1917,-0.1921,-0.1932,-0.1956,-0.1958,-0.1957,-0.1959,-0.196,-0.196,0,0,0,0,0,0,0,-0.171,-0.1718,-0.1794,-0.1795,-0.18,-0.1811,-0.1819,-0.1837,-0.1879,-0.1855,-0.1859,-0.1869,-0.1919,-0.193,-0.1933,-0.1959,-0.1957,-0.1959,-0.196,-0.1961,-0.2065,-0.2066,0,0,0,0,0,0,-0.1705,-0.1715,-0.1791,-0.1796,-0.1761,-0.1813,-0.1822,-0.1836,-0.1879,-0.1887,-0.1869,-0.1871,-0.1926,-0.1931,-0.1936,-0.2015,-0.196,-0.1961,-0.1963,-0.2063,-0.2065,-0.2067,0,0,0,0,0,0,-0.1702,-0.1711,-0.1789,-0.1758,-0.1769,-0.1814,-0.183,-0.1837,-0.1878,-0.189,-0.1897,-0.1905,-0.1927,-0.1933,-0.1981,-0.2015,-0.1962,-0.1964,-0.2061,-0.2064,-0.2066,-0.2125,0,0,0,0,0,0,-0.1699,-0.171,-0.1732,-0.1758,-0.177,-0.183,-0.183,-0.1838,-0.1883,-0.1887,-0.1923,-0.1928,-0.1927,-0.1979,-0.1983,-0.2016,-0.1966,-0.2059,-0.2062,-0.2065,-0.2121,-0.2129,-0.2136,0,0,0,0,0,-0.1695,-0.1719,-0.1733,-0.1743,-0.1795,-0.1832,-0.184,-0.1872,-0.1884,-0.1909,-0.1936,-0.1928,-0.2,-0.1982,-0.1987,-0.2021,-0.2058,-0.2061,-0.2065,-0.2117,-0.2127,-0.2135,0,0,0,0,0,0,-0.1688,-0.1727,-0.1742,-0.1779,-0.1813,-0.184,-0.187,-0.1889,-0.193,-0.1943,-0.195,-0.1957,-0.2011,-0.2009,-0.1988,-0.2059,-0.2027,-0.2032,-0.2065,-0.2074,-0.2082,-0.2072,-0.1967,0,0,0,0,0,-0.1696,-0.1726,-0.1761,-0.1793,-0.1813,-0.1847,-0.1871,-0.1895,-0.1927,-0.1947,-0.1973,-0.1999,-0.2024,-0.2045,-0.2065,-0.2106,-0.208,-0.2131,-0.2138,-0.2145,-0.2141,-0.2135,-0.2141,-0.2078,-0.2078,-0.2078,0,0,-0.1702,-0.1728,-0.1747,-0.1795,-0.1823,-0.1861,-0.1864,-0.1911,-0.1949,-0.1946,-0.2013,-0.2029,-0.2041,-0.2088,-0.2111,-0.2095,-0.2149,-0.2149,-0.2154,-0.2147,-0.2139,-0.2145,-0.2151,-0.208,-0.208,-0.208,0,0,-0.172,-0.1755,-0.1784,-0.1817,-0.1869,-0.1891,-0.1911,-0.1959,-0.1991,-0.2049,-0.2056,-0.2092,-0.2139,-0.215,-0.216,-0.222,-0.2188,-0.2234,-0.2266,-0.2262,-0.2266,-0.227,-0.2241,-0.2241,-0.2238,-0.2238,-0.2238,0,-0.1729,-0.1768,-0.1799,-0.1836,-0.1869,-0.1908,-0.1947,-0.1984,-0.2045,-0.207,-0.2081,-0.2148,-0.2164,-0.2204,-0.2229,-0.2236,-0.2219,-0.2231,-0.227,-0.2273,-0.2276,-0.2245,-0.2244,-0.2242,-0.2241,-0.2241,-0.2241,0,-0.1758,-0.1804,-0.1826,-0.1884,-0.1924,-0.1967,-0.2017,-0.2066,-0.2108,-0.2137,-0.2199,-0.2221,-0.2254,-0.2272,-0.2273,-0.2308,-0.2284,-0.2277,-0.2243,-0.2285,-0.225,-0.2249,-0.2246,-0.2245,-0.2244,-0.2243,0,0,-0.1736,-0.1828,-0.184,-0.1876,-0.1955,-0.1985,-0.2056,-0.2116,-0.2156,-0.2216,-0.226,-0.2312,-0.2321,-0.2331,-0.2339,-0.2343,-0.2354,-0.2327,-0.2325,-0.2289,-0.2327,-0.2177,-0.216,-0.2356,-0.2357,-0.2357,-0.2293,0,-0.1751,-0.1821,-0.1868,-0.1942,-0.198,-0.2042,-0.2099,-0.2162,-0.2213,-0.2266,-0.2296,-0.2341,-0.2344,-0.2365,-0.2373,-0.2362,-0.2355,-0.237,-0.2298,-0.2295,-0.215,-0.2155,-0.2358,-0.2291,-0.2291,-0.2291,-0.2291,0,-0.1753,-0.1804,-0.1877,-0.1967,-0.1991,-0.2045,-0.2132,-0.2188,-0.2265,-0.2304,-0.235,-0.2371,-0.2403,-0.2395,-0.2385,-0.2396,-0.2367,-0.2348,-0.2345,-0.2179,-0.2142,-0.2242,-0.2288,-0.2288,-0.2288,-0.2288,-0.2289,0,-0.1701,-0.1804,-0.1862,-0.1896,-0.2005,-0.2056,-0.2116,-0.2202,-0.2242,-0.2326,-0.2351,-0.2395,-0.2409,-0.2398,-0.2368,-0.2383,-0.233,-0.2341,-0.217,-0.2159,-0.2289,-0.2286,-0.2317,-0.2317,-0.2317,-0.2317,-0.2317,0,-0.1675,-0.1725,-0.1849,-0.188,-0.1947,-0.2037,-0.2107,-0.2172,-0.2254,-0.228,-0.2362,-0.2366,-0.2411,-0.2389,-0.2366,-0.2245,-0.2323,-0.216,-0.2129,-0.2315,-0.2316,-0.2287,-0.2285,-0.2315,-0.2315,-0.2316,-0.2316,0,-0.1599,-0.1685,-0.1755,-0.1882,-0.1924,-0.1971,-0.2089,-0.2122,-0.222,-0.2253,-0.2277,-0.2342,-0.2306,-0.2311,-0.2278,-0.2209,-0.2135,-0.2072,-0.225,-0.2233,-0.197,-0.1972,-0.1876,-0.187,-0.1865,-0.1861,-0.1857,0,-0.156,-0.1592,-0.1732,-0.1768,-0.1831,-0.1918,-0.1963,-0.2086,-0.2113,-0.2206,-0.2195,-0.2211,-0.2227,-0.204,-0.2086,-0.2003,-0.1983,-0.1935,-0.1972,-0.1943,-0.1924,-0.1933,-0.1942,-0.1849,-0.1848,-0.1847,-0.1845,0,-0.1476,-0.1542,-0.1597,-0.1672,-0.1735,-0.179,-0.1868,-0.1869,-0.1984,-0.2094,-0.2036,-0.2006,-0.1954,-0.1922,-0.1858,-0.1814,-0.1968,-0.1883,-0.1894,-0.1928,-0.191,-0.1898,-0.1912,-0.1828,-0.183,-0.1832,-0.1833,0,-0.1407,-0.142,-0.1498,-0.1543,-0.1617,-0.1625,-0.169,-0.1706,-0.1746,-0.1857,-0.1831,-0.1852,-0.192,-0.182,-0.1771,-0.1703,-0.1689,-0.1645,-0.1668,-0.1688,-0.1659,-0.1611,-0.1392,0,0,0,0,0,-0.1325,-0.1321,-0.1357,-0.1398,-0.1464,-0.1499,-0.1601,-0.1668,-0.1782,-0.1683,-0.175,-0.1694,-0.1622,-0.1648,-0.1535,-0.1696,-0.1702,-0.1562,-0.1666,-0.1731,-0.1751,-0.1736,0,0,0,0,0,0,-0.1269,-0.1301,-0.1306,-0.1258,-0.1252,-0.1302,-0.1354,-0.1438,-0.1399,-0.1521,-0.1482,-0.1583,-0.1532,-0.1635,-0.1491,-0.1498,-0.1528,-0.1595,-0.159,-0.172,-0.1738,-0.1754,-0.1745,0,0,0,0,0]},{"header":{"parameterUnit":"m.s-1","parameterCategory":2,"la1":30.2991,"la2":30.254,"lo1":-89.0895,"lo2":-89.0444,"dy":0.0017,"dx":0.0017,"nx":28,"ny":28,"refTime":"2025-11-22T09:00:00:Z","depth":"4","parameterNumber":3,"parameterNumberName":"V-component_of_CURRENTS"},"data":[0,0,0,0,0,0,0,0,0,0,0,0,0,0,0,0,0,0,0,0,0,0,0,0,0,0,0,0,0,0,0,0,0,0,0,0,0,0,0,0,0,0,0,0,0,0,0,0,0,0,0,0,0,0,0,0,0,0,-0.0235,-0.0234,0,-0.0178,-0.0177,-0.0177,-0.0136,-0.0135,-0.0135,-0.0135,-0.0038,-0.0036,-0.0033,0,0,0,0,0,0,0,0,0,0,0,0,0,-0.0262,-0.0262,-0.0235,-0.0234,-0.0234,-0.0178,-0.0177,-0.0176,-0.0136,-0.0135,-0.0135,-0.0135,-0.0039,-0.0036,-0.0033,0,0,0,0,0,0,0,0,0,0,0,0,0,-0.0231,-0.0262,-0.0235,-0.0208,-0.0205,-0.0179,-0.0177,-0.0176,-0.0136,-0.0135,-0.0135,-0.0135,-0.004,-0.0036,-0.0033,-0.0016,0,0,-0.0022,-0.002,0,0,0,0,0,0,0,0,-0.0232,-0.0229,-0.0213,-0.021,-0.0207,-0.0165,-0.0151,-0.0121,-0.0136,-0.016,-0.0135,-0.0135,-0.0078,-0.0071,-0.006,-0.0012,-0.0007,-0.0021,-0.0019,-0.0018,-0.0017,0,0,0,0,0,0,0,-0.0235,-0.0231,-0.0211,-0.0212,-0.0208,-0.0183,-0.0179,-0.0145,-0.0119,-0.0158,-0.0155,-0.0152,-0.0076,-0.0063,-0.0057,-0.0006,-0.0022,-0.0018,-0.0016,-0.0015,0.0068,0.0068,0,0,0,0,0,0,-0.0248,-0.0234,-0.0213,-0.0209,-0.0221,-0.0183,-0.0178,-0.0177,-0.0121,-0.0112,-0.0152,-0.015,-0.0069,-0.0061,-0.0053,-0.0031,-0.0018,-0.0014,-0.0012,0.0068,0.0068,0.0068,0,0,0,0,0,0,-0.0249,-0.0247,-0.0215,-0.0221,-0.0216,-0.0184,-0.0183,-0.0176,-0.0166,-0.0117,-0.0108,-0.0149,-0.0069,-0.0058,-0.0027,-0.0027,-0.0013,-0.0009,0.0068,0.0068,0.0068,0.0013,0,0,0,0,0,0,-0.025,-0.0247,-0.0254,-0.0222,-0.0216,-0.0206,-0.0183,-0.0176,-0.0165,-0.0162,-0.0111,-0.0101,-0.0068,-0.0033,-0.0023,-0.0022,-0.0007,0.0068,0.0068,0.0068,0.0015,0.0012,0.0008,0,0,0,0,0,-0.0251,-0.0262,-0.0254,-0.0252,-0.0225,-0.0207,-0.0201,-0.0176,-0.0165,-0.0164,-0.0128,-0.0103,-0.0025,-0.003,-0.0019,-0.0017,0.0068,0.0068,0.0068,0.0017,0.0012,0.0009,0,0,0,0,0,0,-0.0276,-0.0258,-0.0249,-0.0254,-0.0236,-0.0201,-0.02,-0.0182,-0.0153,-0.015,-0.0102,-0.009,-0.0064,-0.0033,-0.0039,0.0008,0.0026,0.0028,-0.0017,-0.0021,-0.0024,-0.0037,-0.0004,0,0,0,0,0,-0.0286,-0.0289,-0.0265,-0.0269,-0.0264,-0.0233,-0.0224,-0.0207,-0.0177,-0.0165,-0.013,-0.009,-0.0055,-0.0033,-0.0,0.0026,0.0062,0.0035,0.0032,0.0029,0.0026,0.008,0.0081,0.0068,0.0068,0.0068,0,0,-0.0297,-0.0288,-0.029,-0.0275,-0.0259,-0.0256,-0.0227,-0.0217,-0.0211,-0.0158,-0.014,-0.0103,-0.0052,-0.0024,-0.0009,0.0003,0.0051,0.0029,0.0026,0.0025,0.008,0.0082,0.0083,0.0069,0.0069,0.0069,0,0,-0.0322,-0.0314,-0.0325,-0.0315,-0.0298,-0.0278,-0.0279,-0.0249,-0.0232,-0.021,-0.017,-0.0133,-0.0084,-0.0044,-0.0017,-0.0017,0.0028,-0.0008,-0.003,0.0022,0.0023,0.0025,0.0068,0.0074,-0.0006,-0.0006,-0.0006,0,-0.0338,-0.0349,-0.0326,-0.0332,-0.0329,-0.0292,-0.0302,-0.0278,-0.0241,-0.0226,-0.0213,-0.0132,-0.0091,-0.0046,-0.0047,-0.0025,0.0008,-0.0021,0.0017,0.002,0.0022,0.0067,0.0074,-0.0008,-0.0008,-0.0008,-0.0008,0,-0.0367,-0.0378,-0.0384,-0.0381,-0.0372,-0.0375,-0.0343,-0.033,-0.0305,-0.0276,-0.0234,-0.0174,-0.0124,-0.0104,-0.0075,-0.0035,-0.0018,0.0002,0.0024,0.002,0.0067,0.0076,-0.0012,-0.0011,-0.001,-0.001,0,0,-0.0399,-0.0406,-0.0409,-0.0422,-0.0401,-0.0399,-0.0386,-0.0363,-0.0355,-0.0307,-0.0285,-0.0218,-0.0183,-0.015,-0.0102,-0.0054,-0.0007,-0.0024,-0.002,0.0013,0.0103,0.0081,0.0089,0.0018,0.0019,0.002,0.0126,0,-0.0432,-0.0465,-0.0453,-0.0479,-0.0493,-0.0459,-0.0452,-0.0423,-0.0386,-0.0354,-0.028,-0.0242,-0.02,-0.0176,-0.0121,-0.0036,0.0014,-0.0038,0.0107,0.0111,0.0088,0.0098,0.0024,0.0132,0.0134,0.0136,0.0137,0,-0.0464,-0.0484,-0.0522,-0.0535,-0.0538,-0.0545,-0.0528,-0.0517,-0.0455,-0.0424,-0.0364,-0.0304,-0.0224,-0.019,-0.0045,-0.0081,0.0002,0.007,0.0077,0.0082,0.0106,0.014,0.0153,0.0152,0.0151,0.015,0.0149,0,-0.0501,-0.053,-0.0567,-0.0572,-0.0578,-0.0587,-0.0585,-0.0542,-0.0531,-0.0466,-0.0443,-0.034,-0.0283,-0.0169,-0.003,-0.0035,0.0132,0.0146,0.0208,0.0208,0.022,0.0217,0.0249,0.0249,0.0249,0.0248,0.0248,0,-0.0537,-0.0568,-0.0594,-0.0616,-0.0658,-0.0639,-0.0662,-0.0637,-0.0595,-0.0578,-0.0486,-0.0437,-0.0274,-0.0158,-0.0038,0.0109,0.0131,0.0205,0.0235,0.0193,0.0187,0.0226,0.0222,0.0252,0.0251,0.0251,0.025,0,-0.0569,-0.0586,-0.0637,-0.0667,-0.0681,-0.071,-0.0725,-0.073,-0.0685,-0.0656,-0.0636,-0.0499,-0.0347,-0.0184,0.0015,0.0095,0.0239,0.0288,0.0227,0.0251,0.0282,0.0274,0.0362,0.0362,0.0362,0.0362,0.0362,0,-0.0587,-0.0617,-0.0683,-0.0722,-0.0743,-0.0783,-0.0806,-0.078,-0.0772,-0.0688,-0.0666,-0.052,-0.0415,-0.0142,0.0016,0.0239,0.0268,0.0331,0.0307,0.0274,0.0294,0.0286,0.0278,0.0362,0.0362,0.0362,0.0362,0,-0.0621,-0.065,-0.0693,-0.0775,-0.0821,-0.0864,-0.0886,-0.0884,-0.0836,-0.0802,-0.0668,-0.052,-0.0346,-0.0138,0.0033,0.0191,0.0279,0.0332,0.0333,0.0312,0.0276,0.0294,0.0286,0.0363,0.0363,0.0363,0.0363,0,-0.0644,-0.0686,-0.0748,-0.0813,-0.088,-0.0916,-0.0927,-0.0892,-0.0868,-0.076,-0.0715,-0.0517,-0.0393,-0.0162,-0.0003,0.0145,0.0178,0.0212,0.0219,0.022,0.014,0.0071,0.0122,0,0,0,0,0,-0.0658,-0.0706,-0.0777,-0.0848,-0.0914,-0.0944,-0.0963,-0.0955,-0.0909,-0.0817,-0.0758,-0.0588,-0.033,-0.021,-0.0062,-0.0025,0.018,0.0148,0.0216,0.0365,0.0365,0.0291,0,0,0,0,0,0,-0.0669,-0.074,-0.0776,-0.0858,-0.0907,-0.0965,-0.0977,-0.0948,-0.0879,-0.0811,-0.0661,-0.0573,-0.0315,-0.0409,-0.0063,-0.0019,0.0037,0.0276,0.0278,0.0366,0.0365,0.0365,0.0289,0,0,0,0,0]}]]